This is the latest recevied weather packets stored in our database for station/object K1BES. If no packets are shown the sender has not sent any weather packets the latest 10 day(s).
| Time | Temp. | Humidity | Pressure | Rain* | Wind** | Luminosity | Snow |
|---|---|---|---|---|---|---|---|
| 1787871534 | 30° C | 76% | 1017.4 hPa | 0 mm | - | 79 W/m² | - |
| 1787871230 | 30° C | 77% | 1017.5 hPa | 0 mm | - | 85 W/m² | - |
| 1787870925 | 30° C | 76% | 1017.3 hPa | 0 mm | - | 84 W/m² | - |
| 1787870625 | 30° C | 76% | 1017.5 hPa | 0 mm | - | 84 W/m² | - |
| 1787870320 | 30° C | 76% | 1017.5 hPa | 0 mm | - | 93 W/m² | - |
| 1787870016 | 30° C | 76% | 1017.5 hPa | 0 mm | - | 96 W/m² | - |
| 1787869714 | 30° C | 76% | 1017.5 hPa | 0 mm | - | 98 W/m² | - |
| 1787869414 | 30° C | 76% | 1017.3 hPa | 0 mm | - | 76 W/m² | - |
| 1787869109 | 30° C | 76% | 1017.2 hPa | 0 mm | - | 61 W/m² | - |
| 1787868807 | 30.56° C | 75% | 1017.5 hPa | 0 mm | - | 67 W/m² | - |
| 1787868507 | 30.56° C | 74% | 1017.4 hPa | 0 mm | - | 88 W/m² | - |
| 1787868206 | 30.56° C | 73% | 1017.7 hPa | 0 mm | - | 102 W/m² | - |
| 1787867908 | 31.11° C | 73% | 1017.6 hPa | 0 mm | - | 119 W/m² | - |
| 1787867597 | 31.11° C | 74% | 1017.6 hPa | 0 mm | - | 154 W/m² | - |
| 1787867296 | 30.56° C | 73% | 1017.4 hPa | 0 mm | - | 164 W/m² | - |
| 1787866993 | 30.56° C | 72% | 1017.5 hPa | 0 mm | - | 173 W/m² | - |
| 1787866687 | 30.56° C | 73% | 1017.7 hPa | 0 mm | - | 184 W/m² | - |
| 1787866386 | 30.56° C | 73% | 1017.5 hPa | 0 mm | - | 188 W/m² | - |
| 1787866081 | 30.56° C | 73% | 1017.5 hPa | 0 mm | - | 179 W/m² | - |
| 1787865776 | 30.56° C | 74% | 1017.8 hPa | 0 mm | - | 181 W/m² | - |
| 1787865471 | 30° C | 74% | 1017.8 hPa | 0 mm | - | 193 W/m² | - |
| 1787865166 | 30° C | 74% | 1017.7 hPa | 0 mm | - | 189 W/m² | - |
| 1787864863 | 30° C | 73% | 1017.8 hPa | 0 mm | - | 143 W/m² | - |
| 1787864562 | 30° C | 75% | 1017.6 hPa | 0 mm | - | 163 W/m² | - |
| 1787864257 | 30° C | 74% | 1017.8 hPa | 0 mm | - | 166 W/m² | - |
* Rain latest hour (hover to see other rain measurements)
** Current wind speed in m/s (hover to see current wind gust speed)